Weather History for Florala, AL

Change the Weather History Date:

Wednesday, May 29, 2013

  Actual Average (KCEW) Record (KCEW)
Temperature  
Mean Temperature 78 °F -  
Max Temperature 91 °F 88 °F 98 °F (2012)
Min Temperature 66 °F 63 °F 53 °F (2003)
Cooling Degree Days 14    
Growing Degree Days 28 (Base 50)    
Moisture  
Dew Point 67 °F    
Average Humidity 73    
Maximum Humidity 91    
Minimum Humidity 41    
Precipitation  
Precipitation 0.00 in - - ()
Sea Level Pressure  
Sea Level Pressure 30.09 in    
Wind  
Wind Speed 5 mph (SE)    
Max Wind Speed 14 mph    
Max Gust Speed 21 mph    
Visibility 10 miles    
Events Thunderstorm    
Averages and records for this station are not official NWS values.
T = Trace of Precipitation, MM = Missing Value Source: NWS Daily Summary

Daily Weather History Graph

Daily Weather History Graph

Search for Another Location

Airport:

Trip Planner

Search our weather history database for the weather conditions in past years. The results will help you decide how hot, cold, wet, or windy it might be!

Date:

Astronomy

May. 29, 2013 Rise Set
Actual Time 5:42 AM CDT 7:42 PM CDT
Civil Twilight 5:15 AM CDT 8:10 PM CDT
Nautical Twilight 4:42 AM CDT 8:43 PM CDT
Astronomical Twilight 4:07 AM CDT 9:18 PM CDT
Moon 11:57 PM CDT (5/29) 10:31 AM CDT (5/29)
Length of Visible Light 14h 54m
Length of Day
13h 59m
Waning Gibbous, 73% of the Moon is Illuminated
May 29
Waning Gibbous
May 31
Last Quarter
Jun 8
New
Jun 16
First Quarter
Jun 23
Full

Hourly Weather History & Observations

Time (CDT) Temp. Heat Index Dew Point Humidity Pressure Visibility Wind Dir Wind Speed Gust Speed Precip Events Conditions
12:58 AM 66.0 °F - 63.0 °F 90% 30.09 in 10.0 mi Calm Calm - N/A   Clear
1:58 AM 68.0 °F - 64.0 °F 87% 30.06 in 10.0 mi East 3.5 mph - N/A   Clear
2:58 AM 66.9 °F - 64.0 °F 90% 30.06 in 10.0 mi East 3.5 mph - N/A   Clear
3:58 AM 68.0 °F - 64.0 °F 87% 30.07 in 10.0 mi East 3.5 mph - N/A   Clear
4:58 AM 66.9 °F - 63.0 °F 87% 30.08 in 10.0 mi Calm Calm - N/A   Clear
5:58 AM 66.9 °F - 63.0 °F 87% 30.10 in 10.0 mi East 3.5 mph - N/A   Clear
6:58 AM 69.1 °F - 64.9 °F 87% 30.11 in 10.0 mi Variable 3.5 mph - N/A   Clear
7:58 AM 73.9 °F - 66.9 °F 79% 30.12 in 10.0 mi SE 5.8 mph - N/A   Clear
8:58 AM 79.0 °F - 69.1 °F 72% 30.13 in 10.0 mi SSE 6.9 mph - N/A   Scattered Clouds
9:08 AM 78.8 °F - 69.8 °F 74% 30.14 in 10.0 mi SE 8.1 mph - N/A   Mostly Cloudy
9:58 AM 82.0 °F 85.9 °F 70.0 °F 67% 30.12 in 10.0 mi SSE 9.2 mph - N/A   Mostly Cloudy
10:21 AM 82.4 °F 86.3 °F 69.8 °F 66% 30.13 in 10.0 mi SSE 10.4 mph - N/A   Mostly Cloudy
10:41 AM 82.4 °F 86.3 °F 69.8 °F 66% 30.13 in 10.0 mi SE 8.1 mph - N/A   Mostly Cloudy
10:58 AM 84.0 °F 87.8 °F 69.1 °F 61% 30.12 in 10.0 mi SE 8.1 mph - N/A   Mostly Cloudy
11:05 AM 82.4 °F 85.4 °F 68.0 °F 62% 30.13 in 10.0 mi SE 9.2 mph 17.3 mph N/A   Mostly Cloudy
11:12 AM 84.2 °F 88.4 °F 69.8 °F 62% 30.13 in 10.0 mi Variable 3.5 mph - N/A   Mostly Cloudy
11:58 AM 84.9 °F 88.2 °F 68.0 °F 57% 30.11 in 10.0 mi Variable 6.9 mph 20.7 mph N/A   Partly Cloudy
12:58 PM 89.1 °F 92.9 °F 68.0 °F 50% 30.09 in 10.0 mi East 11.5 mph 17.3 mph N/A   Partly Cloudy
1:58 PM 90.0 °F 91.3 °F 64.0 °F 42% 30.07 in 10.0 mi SE 9.2 mph 19.6 mph N/A   Partly Cloudy
2:58 PM 91.0 °F 92.6 °F 64.0 °F 41% 30.06 in 10.0 mi ESE 11.5 mph 19.6 mph N/A   Clear
3:34 PM 89.6 °F 91.1 °F 64.4 °F 43% 30.06 in 10.0 mi SE 13.8 mph 20.7 mph N/A Thunderstorm Thunderstorm
3:58 PM 86.0 °F 87.3 °F 64.0 °F 48% 30.06 in 10.0 mi SSE 8.1 mph 16.1 mph N/A Thunderstorm Thunderstorm
4:20 PM 78.8 °F - 66.2 °F 65% 30.09 in 10.0 mi SSW 11.5 mph 20.7 mph N/A Thunderstorm Thunderstorm
4:57 PM 75.9 °F - 69.1 °F 79% 30.07 in 10.0 mi South 5.8 mph - N/A   Mostly Cloudy
5:58 PM 79.0 °F - 71.1 °F 77% 30.06 in 10.0 mi SSW 6.9 mph - N/A   Partly Cloudy
6:58 PM 78.1 °F - 71.1 °F 79% 30.05 in 10.0 mi South 3.5 mph - N/A   Clear
7:58 PM 75.9 °F - 71.1 °F 85% 30.05 in 10.0 mi Calm Calm - N/A   Clear
8:58 PM 73.9 °F - 70.0 °F 87% 30.07 in 10.0 mi Calm Calm - N/A   Clear
9:58 PM 73.0 °F - 70.0 °F 90% 30.08 in 10.0 mi Calm Calm - N/A   Clear
10:58 PM 72.0 °F - 69.1 °F 91% 30.08 in 10.0 mi Calm Calm - N/A   Clear
11:58 PM 73.0 °F - 70.0 °F 90% 30.07 in 10.0 mi Calm Calm - N/A   Clear